DO273E Weather Reports


Display with metric or nautical units.
time (UTC)temp
F
wind
direction
speed
MPH
gust
MPH
rain 1hr
in
rain 24hr
in
rain mn
in
humidity
%
barometer
mb
20260507210726 0 0 0.0 0.0 0.00 0.01 0.00 100
20260507205728 0 0 0.0 0.0 0.00 0.01 0.00 100
20260507204728 0 0 0.0 0.0 0.00 0.01 0.00 100
20260507203729 58 270 9.0 9.0 0.00 0.01 0.00 37 1011.1
20260507201827 0 0 0.0 0.0 0.00 0.01 0.00 100
20260507194914 58 292 9.0 9.0 0.00 0.01 0.00 38 1011.7
20260507194816 58 292 9.0 9.0 0.00 0.01 0.00 38 1011.7
20260507192859 59 275 14.0 19.0 0.00 0.02 0.00 38 1011.7
20260507191915 59 243 3.0 11.0 0.00 0.02 0.00 39 1011.8
20260507190013 59 259 8.0 13.0 0.00 0.02 0.00 41 1012.0
20260507185915 59 237 6.0 8.0 0.00 0.02 0.00 42 1012.0
20260507184913 58 297 13.0 18.0 0.00 0.02 0.00 42 1011.8
20260507183914 57 271 9.0 13.0 0.00 0.02 0.00 42 1012.0
20260507182914 57 271 10.0 15.0 0.00 0.03 0.00 43 1012.2
20260507181929 57 271 8.0 15.0 0.00 0.03 0.00 43 1012.2
20260507181815 57 278 11.0 16.0 0.00 0.03 0.00 43 1012.1
20260507180815 57 282 8.0 11.0 0.00 0.03 0.00 42 1012.2
20260507175714 57 267 7.0 10.0 0.00 0.03 0.00 41 1012.4
20260507174813 58 267 7.0 12.0 0.00 0.03 0.00 41 1012.5
20260507173829 57 288 8.0 11.0 0.00 0.04 0.00 41 1012.6
20260507172914 58 310 7.0 8.0 0.00 0.04 0.00 40 1012.8
20260507172832 58 291 10.0 12.0 0.00 0.04 0.00 39 1012.8
20260507171814 57 268 6.0 9.0 0.00 0.04 0.00 42 1012.8
20260507170815 57 258 7.0 11.0 0.00 0.04 0.00 41 1013.1
20260507164814 56 270 1.0 2.0 0.00 0.05 0.00 42 1013.2
20260507163831 56 270 5.0 5.0 0.00 0.05 0.00 43 1013.2
20260507162828 56 225 0.0 2.0 0.00 0.05 0.00 42 1013.4
20260507161815 55 266 7.0 12.0 0.00 0.05 0.00 42 1013.5
20260507161713 55 239 6.0 11.0 0.00 0.05 0.00 42 1013.5
20260507155813 55 272 6.0 9.0 0.00 0.06 0.00 44 1013.6
20260507155714 55 278 10.0 14.0 0.00 0.06 0.00 45 1013.7
20260507154732 55 270 3.0 5.0 0.00 0.06 0.00 45 1013.6
20260507154613 55 270 4.0 6.0 0.00 0.06 0.00 45 1013.7
20260507153614 54 270 5.0 7.0 0.00 0.06 0.00 47 1013.8
20260507153513 54 270 6.0 7.0 0.00 0.06 0.00 46 1013.8
20260507153429 54 270 8.0 11.0 0.00 0.06 0.00 46 1013.8
20260507151513 55 270 6.0 11.0 0.00 0.07 0.00 47 1014.0
20260507150513 54 270 5.0 8.0 0.00 0.07 0.00 46 1014.2
20260507145613 53 292 0.0 0.0 0.00 0.08 0.00 47 1014.3
20260507144613 54 296 9.0 12.0 0.00 0.08 0.00 48 1014.5
20260507142629 55 225 1.0 2.0 0.00 0.08 0.00 50 1014.6
20260507141716 54 292 0.0 1.0 0.00 0.09 0.00 50 1014.8
20260507140714 55 270 2.0 5.0 0.00 0.09 0.00 51 1015.0
20260507134813 56 270 0.0 1.0 0.00 0.10 0.00 55 1015.2
20260507132915 53 270 1.0 2.0 0.00 0.11 0.00 55 1015.3
20260507131913 54 270 1.0 1.0 0.00 0.11 0.00 58 1015.4
20260507131013 54 270 1.0 2.0 0.00 0.11 0.00 60 1015.2
20260507130029 53 315 0.0 0.0 0.00 0.12 0.00 62 1015.4
20260507125113 51 360 0.0 0.0 0.00 0.12 0.00 64 1015.2
20260507124116 49 360 0.0 0.0 0.00 0.13 0.00 69 1015.3
20260507123115 48 360 0.0 0.0 0.00 0.13 0.00 72 1015.4
20260507123014 48 360 0.0 0.0 0.00 0.13 0.00 72 1015.4
20260507122030 47 360 0.0 0.0 0.00 0.14 0.00 76 1015.2
20260507121113 46 360 0.0 0.0 0.00 0.15 0.00 80 1015.2
20260507120113 45 360 0.0 0.0 0.00 0.15 0.00 82 1015.2
20260507115128 45 360 0.0 0.0 0.00 0.16 0.00 83 1015.1
20260507114215 44 360 0.0 0.0 0.00 0.16 0.00 85 1015.1
20260507113313 44 360 0.0 0.0 0.00 0.17 0.00 84 1014.8
20260507112413 44 360 0.0 0.0 0.00 0.18 0.00 86 1014.8
20260507111413 43 360 0.0 0.0 0.00 0.19 0.00 87 1014.4
20260507110413 42 360 0.0 0.0 0.00 0.19 0.00 88 1014.4
20260507104512 40 360 0.0 0.0 0.00 0.19 0.00 89 1014.1
20260507104429 40 360 0.0 0.0 0.00 0.19 0.00 89 1014.0
20260507103515 40 360 0.0 0.0 0.00 0.19 0.00 87 1013.9
20260507102513 40 360 0.0 0.0 0.00 0.19 0.00 85 1013.9
20260507102413 40 360 0.0 0.0 0.00 0.19 0.00 85 1013.9
20260507101414 40 360 0.0 0.0 0.00 0.19 0.00 83 1013.8
20260507101330 40 360 0.0 0.0 0.00 0.19 0.00 83 1013.8
20260507100414 40 360 0.0 0.0 0.00 0.19 0.00 82 1013.7
20260507095513 41 360 0.0 0.0 0.00 0.19 0.00 79 1013.7
20260507094530 41 360 0.0 0.0 0.00 0.19 0.00 80 1013.7
20260507093514 41 360 0.0 0.0 0.00 0.19 0.00 77 1013.7
20260507091629 41 360 0.0 0.0 0.00 0.19 0.00 76 1014.0
20260507090728 42 360 0.0 0.0 0.00 0.19 0.00 76 1014.0
20260507090632 42 360 0.0 0.0 0.00 0.19 0.00 76 1014.1
20260507085630 43 360 0.0 0.0 0.00 0.19 0.00 73 1014.0
20260507084713 43 360 0.0 0.0 0.00 0.19 0.00 70 1014.0
20260507083812 44 360 0.0 0.0 0.00 0.20 0.00 69 1014.0
20260507083731 44 360 0.0 0.0 0.00 0.20 0.00 69 1014.1
20260507081714 44 360 0.0 0.0 0.00 0.22 0.00 70 1013.9
20260507080730 44 360 0.0 0.0 0.00 0.23 0.00 69 1014.1
20260507075815 45 360 0.0 0.0 0.00 0.23 0.00 67 1013.9
20260507075729 45 360 0.0 0.0 0.00 0.23 0.00 68 1014.0
20260507074812 45 360 1.0 2.0 0.00 0.23 0.00 66 1014.1
20260507073813 46 360 2.0 3.0 0.00 0.23 0.00 66 1014.1
20260507072813 46 360 2.0 2.0 0.00 0.23 0.00 65 1014.2
20260507071813 46 360 2.0 3.0 0.00 0.24 0.00 65 1014.2
20260507071714 46 360 2.0 3.0 0.00 0.24 0.00 65 1014.2
20260507070714 46 360 3.0 4.0 0.00 0.25 0.00 64 1014.0
20260507065813 47 360 3.0 4.0 0.00 0.25 0.00 63 1014.2
20260507065712 47 360 3.0 4.0 0.00 0.25 0.00 63 1014.1
20260507063713 47 360 1.0 1.0 0.00 0.28 0.00 65 1014.2
20260507062713 47 360 0.0 0.0 0.00 0.28 0.00 63 1014.2
20260507060812 48 360 1.0 2.0 0.00 0.28 0.00 64 1014.4
20260507060730 48 360 0.0 1.0 0.00 0.28 0.00 64 1014.5
20260507055814 48 360 0.0 1.0 0.00 0.28 0.00 64 1014.8
20260507054830 48 360 2.0 4.0 0.00 0.28 0.00 63 1014.8
20260507053912 48 360 2.0 3.0 0.00 0.28 0.00 63 1014.9
20260507053814 48 360 2.0 3.0 0.00 0.28 0.00 63 1014.9
20260507052830 48 360 3.0 4.0 0.00 0.28 0.00 62 1015.0
20260507051812 48 360 3.0 3.0 0.00 0.28 0.00 63 1014.9
20260507050912 48 360 2.0 2.0 0.00 0.28 0.00 64 1014.8
20260507050813 48 360 3.0 4.0 0.00 0.28 0.00 64 1014.9
20260507045913 49 360 1.0 3.0 0.00 0.28 0.00 63 1014.9
20260507043914 49 360 3.0 4.0 0.00 0.30 0.00 62 1014.9
20260507043013 49 360 4.0 4.0 0.00 0.30 0.00 63 1014.9
20260507042112 49 360 3.0 4.0 0.00 0.30 0.00 63 1014.9
20260507041116 49 360 3.0 4.0 0.00 0.30 0.00 63 1015.0
20260507040112 49 180 4.0 5.0 0.00 0.30 0.00 63 1014.9
20260507034143 49 360 3.0 3.0 0.00 0.30 0.30 62 1014.8
20260507032244 49 360 1.0 2.0 0.00 0.30 0.30 64 1014.8
20260507031229 50 360 2.0 3.0 0.00 0.30 0.30 62 1014.5
20260507031127 50 360 3.0 3.0 0.00 0.30 0.30 63 1014.4
20260507030129 50 360 3.0 4.0 0.00 0.30 0.30 61 1014.5
20260507025128 50 22 4.0 5.0 0.00 0.30 0.30 61 1014.4
20260507024128 50 360 4.0 6.0 0.00 0.30 0.30 61 1014.4
20260507023227 50 360 3.0 5.0 0.00 0.30 0.30 62 1014.3
20260507022326 50 360 3.0 3.0 0.00 0.30 0.30 61 1014.3
20260507021328 51 360 2.0 4.0 0.00 0.30 0.30 61 1014.2
20260507020328 51 360 5.0 6.0 0.00 0.30 0.30 61 1014.1
20260507015428 51 360 4.0 5.0 0.00 0.30 0.30 60 1013.9
20260507014427 51 7 5.0 7.0 0.00 0.30 0.30 62 1013.8
20260507013444 51 17 4.0 6.0 0.00 0.30 0.30 62 1013.6
20260507012445 51 360 5.0 6.0 0.00 0.30 0.30 64 1013.7
20260507011529 51 26 6.0 7.0 0.00 0.30 0.30 62 1013.4
20260507010544 52 10 7.0 12.0 0.00 0.30 0.30 68 1013.7
20260507005628 52 360 5.0 7.0 0.00 0.30 0.30 67 1013.8
20260507003727 52 292 0.0 1.0 0.00 0.30 0.30 72 1013.7
20260507002728 52 292 0.0 0.0 0.00 0.30 0.30 72 1013.9
20260507000743 53 292 1.0 3.0 0.00 0.30 0.30 72 1014.2
20260506235727 53 292 0.0 1.0 0.00 0.30 0.30 72 1013.7
20260506235626 53 292 0.0 1.0 0.00 0.30 0.30 71 1013.6
20260506234643 53 292 0.0 0.0 0.00 0.30 0.30 71 1013.6
20260506233728 53 292 0.0 1.0 0.00 0.30 0.30 70 1013.6
20260506232726 53 292 2.0 3.0 0.00 0.30 0.30 72 1013.5
20260506232627 53 292 1.0 2.0 0.00 0.30 0.30 72 1013.6
20260506231630 53 292 2.0 2.0 0.00 0.30 0.30 71 1013.4
20260506230627 54 292 0.0 1.0 0.00 0.30 0.30 71 1013.2
20260506224645 53 292 1.0 3.0 0.00 0.30 0.30 71 1012.9
20260506222728 53 315 0.0 0.0 0.01 0.30 0.30 73 1013.0
20260506221728 53 315 1.0 2.0 0.01 0.30 0.30 72 1013.0
20260506220728 53 315 1.0 2.0 0.01 0.30 0.30 72 1013.0
20260506215727 53 315 0.0 2.0 0.01 0.30 0.30 73 1013.0
20260506215634 53 315 0.0 0.0 0.01 0.30 0.30 73 1012.9
20260506214644 53 315 1.0 3.0 0.01 0.30 0.30 72 1012.7
20260506214528 53 315 2.0 3.0 0.01 0.30 0.30 73 1012.8
20260506213527 53 315 0.0 1.0 0.01 0.30 0.30 72 1012.6